When you browse on this site, cookies collect data to enhance your experience and personalize the content and advertising you see.
Visit our Privacy Policy to learn more. By continuing to use the site, you agree to this use of cookies and data.
  • In Hungary
  • List of Countries
  • For 7 days
  • Water Temperature
  • Weather Map
  • News
  • Weather Widgets
  • user-avatar
    Login

    Hourly Weather Jelgava

    Today, 29 March, Sunday

    Time Temperature Precipitation Wind Pressure Humidity
    00:00 +2°C° 0 mm 3 mps 761 mmHg 72%
    01:00 +2°C° 0 mm 3 mps 761 mmHg 77%
    02:00 +1°C° 0 mm 4 mps 761 mmHg 80%
    03:00 +1°C° 0 mm 4 mps 761 mmHg 81%
    04:00 +1°C° 0 mm 5 mps 761 mmHg 82%
    05:00 +1°C° 0 mm 6 mps 761 mmHg 83%
    06:00 -1°C° 0.1 mm 6 mps 761 mmHg 84%
    07:00 -1°C° 0.1 mm 7 mps 762 mmHg 85%
    08:00 -2°C° 0 mm 8 mps 762 mmHg 83%
    09:00 -1°C° 0 mm 8 mps 763 mmHg 75%
    10:00 -1°C° 0 mm 7 mps 763 mmHg 66%
    11:00 0°C° 0 mm 7 mps 764 mmHg 57%
    12:00 0°C° 0 mm 7 mps 764 mmHg 54%
    13:00 0°C° 0 mm 7 mps 764 mmHg 51%
    14:00 0°C° 0 mm 7 mps 764 mmHg 47%
    15:00 0°C° 0 mm 7 mps 764 mmHg 45%
    16:00 -1°C° 0 mm 7 mps 764 mmHg 44%
    17:00 -1°C° 0 mm 7 mps 764 mmHg 42%
    18:00 -2°C° 0 mm 6 mps 764 mmHg 44%
    19:00 -3°C° 0 mm 6 mps 764 mmHg 45%
    20:00 -2°C° 0 mm 5 mps 765 mmHg 47%
    21:00 -3°C° 0 mm 4 mps 765 mmHg 49%
    22:00 -3°C° 0 mm 4 mps 765 mmHg 51%
    23:00 -4°C° 0 mm 3 mps 764 mmHg 53%

    Tomorrow, 30 March, Monday

    Time Temperature Precipitation Wind Pressure Humidity
    00:00 -4°C° 0 mm 3 mps 765 mmHg 56%
    01:00 -3°C° 0 mm 2 mps 765 mmHg 59%
    02:00 -3°C° 0 mm 2 mps 765 mmHg 62%
    03:00 -3°C° 0 mm 2 mps 764 mmHg 62%
    04:00 -3°C° 0 mm 2 mps 764 mmHg 62%
    05:00 -1°C° 0 mm 1 mps 764 mmHg 62%
    06:00 -1°C° 0 mm 1 mps 764 mmHg 58%
    07:00 0°C° 0 mm 1 mps 764 mmHg 54%
    08:00 0°C° 0 mm 1 mps 764 mmHg 50%
    09:00 +2°C° 0 mm 1 mps 763 mmHg 45%
    10:00 +3°C° 0 mm 1 mps 763 mmHg 40%
    11:00 +5°C° 0 mm 1 mps 763 mmHg 35%
    12:00 +5°C° 0 mm 1 mps 763 mmHg 35%
    13:00 +5°C° 0 mm 1 mps 763 mmHg 36%
    14:00 +5°C° 0 mm 2 mps 763 mmHg 36%
    15:00 +4°C° 0.1 mm 2 mps 762 mmHg 38%
    16:00 +4°C° 0.1 mm 2 mps 762 mmHg 40%
    17:00 +4°C° 0.1 mm 2 mps 762 mmHg 41%
    18:00 +3°C° 0.1 mm 2 mps 763 mmHg 46%
    19:00 +2°C° 0.1 mm 2 mps 763 mmHg 50%
    20:00 +1°C° 0.1 mm 2 mps 764 mmHg 54%
    21:00 +1°C° 0 mm 2 mps 764 mmHg 55%
    22:00 +1°C° 0 mm 2 mps 765 mmHg 56%
    23:00 -1°C° 0 mm 3 mps 765 mmHg 57%

    Day after tomorrow, 31 March, Tuesday

    Time Temperature Precipitation Wind Pressure Humidity
    00:00 -1°C° 0 mm 3 mps 766 mmHg 54%
    01:00 -2°C° 0 mm 3 mps 766 mmHg 52%
    02:00 -2°C° 0 mm 3 mps 767 mmHg 49%
    03:00 -2°C° 0 mm 3 mps 767 mmHg 49%
    04:00 -3°C° 0 mm 2 mps 767 mmHg 49%
    05:00 -3°C° 0 mm 2 mps 768 mmHg 49%
    06:00 -3°C° 0 mm 2 mps 768 mmHg 47%
    07:00 -2°C° 0 mm 2 mps 768 mmHg 44%
    08:00 -2°C° 0 mm 2 mps 768 mmHg 42%
    09:00 +1°C° 0 mm 1 mps 768 mmHg 36%
    10:00 +2°C° 0 mm 1 mps 768 mmHg 31%
    11:00 +4°C° 0 mm 1 mps 768 mmHg 26%
    12:00 +4°C° 0 mm 1 mps 768 mmHg 27%
    13:00 +3°C° 0 mm 2 mps 767 mmHg 27%
    14:00 +3°C° 0 mm 2 mps 767 mmHg 28%
    15:00 +3°C° 0 mm 2 mps 766 mmHg 30%
    16:00 +3°C° 0 mm 2 mps 766 mmHg 33%
    17:00 +3°C° 0 mm 2 mps 765 mmHg 35%
    18:00 +2°C° 0 mm 2 mps 765 mmHg 44%
    19:00 +1°C° 0 mm 2 mps 764 mmHg 52%
    20:00 -1°C° 0 mm 2 mps 764 mmHg 60%
    21:00 -1°C° 0 mm 3 mps 763 mmHg 61%
    22:00 -2°C° 0 mm 4 mps 762 mmHg 61%
    23:00 -3°C° 0 mm 4 mps 762 mmHg 62%

    1 April, Wednesday

    Time Temperature Precipitation Wind Pressure Humidity
    00:00 -2°C° 0 mm 5 mps 761 mmHg 63%
    01:00 -2°C° 0 mm 5 mps 760 mmHg 64%
    02:00 -3°C° 0 mm 6 mps 760 mmHg 66%
    03:00 -3°C° 0 mm 6 mps 758 mmHg 74%
    04:00 -2°C° 0 mm 6 mps 757 mmHg 82%
    05:00 -2°C° 0 mm 6 mps 756 mmHg 90%
    06:00 -2°C° 0.4 mm 6 mps 755 mmHg 91%
    07:00 -1°C° 0.4 mm 6 mps 755 mmHg 93%
    08:00 +1°C° 0.4 mm 6 mps 754 mmHg 94%
    09:00 +1°C° 0.2 mm 6 mps 754 mmHg 91%
    10:00 +2°C° 0.2 mm 5 mps 753 mmHg 88%
    11:00 +2°C° 0.2 mm 5 mps 753 mmHg 84%
    12:00 +3°C° 0 mm 5 mps 753 mmHg 80%
    13:00 +5°C° 0 mm 5 mps 753 mmHg 76%
    14:00 +5°C° 0 mm 6 mps 753 mmHg 71%
    15:00 +6°C° 0.1 mm 5 mps 753 mmHg 71%
    16:00 +5°C° 0.1 mm 5 mps 753 mmHg 71%
    17:00 +5°C° 0.1 mm 5 mps 752 mmHg 71%
    18:00 +4°C° 0 mm 4 mps 752 mmHg 76%
    19:00 +3°C° 0 mm 3 mps 752 mmHg 81%
    20:00 +2°C° 0 mm 3 mps 752 mmHg 85%
    21:00 +3°C° 0 mm 2 mps 752 mmHg 88%
    22:00 +3°C° 0 mm 2 mps 752 mmHg 90%
    23:00 +2°C° 0 mm 2 mps 751 mmHg 92%

    2 April, Thursday

    Time Temperature Precipitation Wind Pressure Humidity
    00:00 +2°C° 0 mm 2 mps 751 mmHg 93%
    01:00 +2°C° 0 mm 2 mps 750 mmHg 94%
    02:00 +2°C° 0 mm 2 mps 750 mmHg 95%
    03:00 +3°C° 0 mm 2 mps 749 mmHg 95%
    04:00 +2°C° 0 mm 3 mps 749 mmHg 95%
    05:00 +3°C° 0 mm 3 mps 748 mmHg 95%
    06:00 +3°C° 0.3 mm 3 mps 748 mmHg 95%
    07:00 +3°C° 0.3 mm 4 mps 747 mmHg 94%
    08:00 +3°C° 0.3 mm 4 mps 747 mmHg 94%
    09:00 +2°C° 0.1 mm 5 mps 746 mmHg 92%
    10:00 +3°C° 0.1 mm 5 mps 746 mmHg 91%
    11:00 +3°C° 0.1 mm 5 mps 746 mmHg 89%
    12:00 +3°C° 0.2 mm 5 mps 746 mmHg 86%
    13:00 +5°C° 0.2 mm 5 mps 746 mmHg 82%
    14:00 +5°C° 0.2 mm 5 mps 746 mmHg 79%
    15:00 +4°C° 0.1 mm 6 mps 746 mmHg 75%
    16:00 +5°C° 0.1 mm 6 mps 746 mmHg 71%
    17:00 +5°C° 0.1 mm 7 mps 745 mmHg 68%
    18:00 +4°C° 0 mm 6 mps 745 mmHg 71%
    19:00 +4°C° 0 mm 6 mps 745 mmHg 74%
    20:00 +3°C° 0 mm 6 mps 745 mmHg 77%
    21:00 +3°C° 0 mm 7 mps 744 mmHg 77%
    22:00 +3°C° 0 mm 7 mps 744 mmHg 76%
    23:00 +2°C° 0 mm 8 mps 743 mmHg 76%

    3 April, Friday

    Time Temperature Precipitation Wind Pressure Humidity
    00:00 +2°C° 0 mm 8 mps 743 mmHg 76%
    01:00 +3°C° 0 mm 9 mps 742 mmHg 76%
    02:00 +3°C° 0 mm 9 mps 742 mmHg 76%
    03:00 +2°C° 0.2 mm 9 mps 741 mmHg 77%
    04:00 +2°C° 0.2 mm 8 mps 741 mmHg 78%
    05:00 +1°C° 0.2 mm 8 mps 741 mmHg 79%
    06:00 +1°C° 0.1 mm 9 mps 741 mmHg 74%
    07:00 +1°C° 0.1 mm 9 mps 741 mmHg 69%
    08:00 +1°C° 0.1 mm 9 mps 741 mmHg 64%
    09:00 +2°C° 0 mm 10 mps 741 mmHg 62%
    10:00 +2°C° 0 mm 10 mps 741 mmHg 60%
    11:00 +3°C° 0 mm 11 mps 742 mmHg 58%
    12:00 +3°C° 0.1 mm 10 mps 742 mmHg 57%
    13:00 +3°C° 0.1 mm 10 mps 743 mmHg 57%
    14:00 +3°C° 0.1 mm 10 mps 744 mmHg 56%
    15:00 +3°C° 0.3 mm 9 mps 744 mmHg 62%
    16:00 +3°C° 0.3 mm 7 mps 745 mmHg 68%
    17:00 +2°C° 0.3 mm 6 mps 746 mmHg 73%
    18:00 +1°C° 0.1 mm 5 mps 747 mmHg 75%
    19:00 0°C° 0.1 mm 4 mps 748 mmHg 76%
    20:00 +1°C° 0.1 mm 3 mps 749 mmHg 78%
    21:00 0°C° 0 mm 3 mps 750 mmHg 77%
    22:00 -1°C° 0 mm 3 mps 750 mmHg 77%
    23:00 -1°C° 0 mm 2 mps 751 mmHg 76%
    Show more